"Pseudo-MPEC" for P10ONKd

Created 2019 Jun 15 19:08:29 UT using Find_Orb

Click here for an explanation of pseudo-MPECs

 
 Astrometry: 
     P10ONKd  C2019 05 01Y:P:[m=NaeuACaCm(B'P;[p[s35F:6@M+pgf=^n$JjFG+C:3?B=ZF51
     P10ONKd  C2019 05 01W4pPG+Q;vKB'u/G8n;qr_q?D:32Y/Onfcqe#HysIZH2'`Zw1R6(KF51
     P10ONKd  C2019 05 01[v9m0HBX5`v,Ky.QS[T3)goCGF/T\7Y=hr0xA-00m,p+$o8_$LBkF51
     P10ONKd  C2019 05 27uelAtF#fZu.R+`M8p7+-#AstrometryaeM$QFBUf4v:5SZo(B!4(F51
     P10ONKd  C2019 05 27)R@f.(ipGJLG*Li_lX5-GBApKdK9lT?EO_S1)#Xredacted;y'*GF51
     P10ONKd  C2019 05 27e16J#H90o6,eap7TEM;N3I_pro.M3-R7Uk!%[-DvW5Pt[$ick8IaF51
     P10ONKd  C2019 05 27?A0'wMTeZ,ViR1n3smdP(:$=rn'=`*$Y%5:IAP/w?;ch)\[m2=-kF51
     P10ONKd  C2019 05 29[Z9wyFY%kM[av#7,TVG=xPyYwfQ+Wf?p(I(r\-clickc0hJ`k;lrF52
     P10ONKd  C2019 06 02n=pxq*v]5[n!)pgei$r,4:Wt,rA`Di#oANSqehRYi,QL#s7lw/R1F52
     P10ONKd  C2019 06 02I/_/\ZoZIM)k!\bgJomUR?2%VX?1gCtLR0-k0)N!*1K5g)B2H/7YF52
     P10ONKd  C2019 06 02gmxxZAM`N]m*(X3W3qh+w#r#`oic$BEstD-pqmx.;(7son,f68=mF52
     P10ONKd  C2019 06 07dtTYc=7C9]pg'#]Rq5`f=Q_fEE-[7J)E]5bTM,mdZEZrw+-7q%i0F51
     P10ONKd  C2019 06 07kh/x$!I-WHDl0xspE]M%(-QYl_K=dnM/\6b:71!n3E;wC4nhLAH.F51
     P10ONKd  C2019 06 07(yht8m7VafwTN8F9m:9U#6DqYpl'$tZFHM99)WIRfQD2D7JP\(ASF51
     P10ONKd  C2019 06 07PF[Tto!CBn6IhereHO!h[EY\Z^gf.v?.L?C[:8\7[PM;SODT=%yqF51
     P10ONKd |C2019 06 08_6Rw#HceE\MKVp,pbBaCMh8][[b4S!J_x'-;FRRsX.CdX,a?)4aB807
     P10ONKd |C2019 06 08:%YO;AdHwh-OJ:EpGwD%+ACc'*\ewa3#@br;t8o'BsugiBdg!IcE807
     P10ONKd |C2019 06 08fj)/yp5V6QN,XHD')@%-C!qeWtNV`r_b(abxPri(GO:Isu-:uf!r807
     P10ONKd KC2019 06 08AM]xGeTb^n$@U@r`9;B:j\=forWJX,j3X2explanation`p0b[?J691
     P10ONKd KC2019 06 08s3N9Bo2(bMJ`?\qDn#4[\BR1*gP.a=6T__@hGHl#fSwJAJ(/+d0'691
     P10ONKd KC2019 06 08pue7%sxB0-'oMoqut;oqq?8AG'ef.5atM@m%bW2i':9x5Ur+$Dw6691

Station data:
(691) Steward Observatory, Kitt Peak - Spacewatch  (N31.962174 W111.600327)
   US/Arizona.  Observer J. V. Scotti. 0.9-m f/3 reflector + CCD.
(807) Cerro Tololo Observatory, La Serena  (S30.169136 W70.805900)  Chile.
(F51) Pan-STARRS 1, Haleakala  (N20.707235 W156.255910)  US/Hawaii.
   Observers N. Primak, A. Schultz, S. Watters, J. Thiel, T. Goggia. Measurer
   PS1 Science Consortium. 1.8-m Ritchey-Chrétien + CCD.
(F52) Pan-STARRS 2, Haleakala  (N20.707384 W156.255910)  US/Hawaii. 1.8-m
   Ritchey-Chrétien + CCD.

Orbital elements:  P10ONKd
   Perihelion 2020 Mar 3.510746 +/- 0.0695 TT = 12:15:28 (JD 2458912.010746)
Epoch 2019 Jun  8.0 TT = JDT 2458642.5   Earth MOID: 0.8088   AutoNEOCP
M 256.94331087 +/- 0.039            (J2000 ecliptic)
n   0.38238434 +/- 5.83e-5          Peri.  272.74449 +/- 0.022
a   1.87990534 +/- 0.000191         Node    90.32064 +/- 0.0045
e   0.1022553 +/- 0.000119          Incl.   24.09043 +/- 0.006
P   2.58/941.44d           H 20.1   G  0.15   U  6.2  
q 1.68767490 +/- 8.05e-5    Q 2.07213579 +/- 0.000429
From 21 observations 2019 May 1-June 8; mean residual 0".31
Residuals in arcseconds: 
190501 F51  .07-  .19-    190529 F52  .19-  .04+    190607 F51  .13-  .17-    
190501 F51  .07-  .05-    190602 F52  .11+  .27-    190608 807  .08+  .28-    
190501 F51  .16+  .21+    190602 F52  .18+  .21+    190608 807  .21+  .51-    
190527 F51  .06-  .04+    190602 F52  .36+  .04+    190608 807  .21+  .42-    
190527 F51  .02-  .02+    190607 F51  .12-  .20-    190608 691  .23+  .25+    
190527 F51  .03-  .02+    190607 F51  .36-  .08-    190608 691  .40-  1.5+    
190527 F51  .07-  .05+    190607 F51  .07+  .17-    190608 691  .11-  .17-    

Ephemerides (geocentric):
Date (UTC) HH   RA              Dec         delta   r     elong  mag " sig PA
---- -- -- --  -------------   -----------  ------ ------ -----  --- ---- ---
2019 06 15 19  16 09 43.157   -05 46 56.19  .97064 1.9320 153.1 22.2 .492 122
2019 06 15 20  16 09 39.709   -05 47 36.86  .97074 1.9319 153.1 22.2 .495 122
2019 06 15 21  16 09 36.264   -05 48 17.55  .97083 1.9319 153.0 22.2 .498 121
2019 06 15 22  16 09 32.821   -05 48 58.25  .97092 1.9318 153.0 22.2 .501 121
2019 06 15 23  16 09 29.381   -05 49 38.98  .97101 1.9318 153.0 22.2 .504 121
2019 06 16 00  16 09 25.943   -05 50 19.72  .97111 1.9317 152.9 22.2 .507 121
2019 06 16 01  16 09 22.508   -05 51 00.48  .97120 1.9317 152.9 22.2 .510 121
2019 06 16 02  16 09 19.075   -05 51 41.26  .97130 1.9316 152.9 22.2 .513 121
2019 06 16 03  16 09 15.645   -05 52 22.06  .97139 1.9316 152.8 22.2 .516 121
2019 06 16 04  16 09 12.218   -05 53 02.88  .97149 1.9315 152.8 22.2 .519 121
2019 06 16 05  16 09 08.793   -05 53 43.71  .97158 1.9315 152.7 22.2 .522 121
2019 06 16 06  16 09 05.371   -05 54 24.56  .97168 1.9314 152.7 22.2 .525 121
2019 06 16 07  16 09 01.951   -05 55 05.43  .97177 1.9314 152.7 22.2 .528 121
2019 06 16 08  16 08 58.534   -05 55 46.32  .97187 1.9313 152.6 22.2 .531 121
2019 06 16 09  16 08 55.120   -05 56 27.23  .97197 1.9313 152.6 22.2 .534 120
2019 06 16 10  16 08 51.708   -05 57 08.15  .97207 1.9312 152.6 22.2 .537 120
2019 06 16 11  16 08 48.299   -05 57 49.09  .97216 1.9312 152.5 22.2 .540 120
2019 06 16 12  16 08 44.892   -05 58 30.06  .97226 1.9311 152.5 22.2 .543 120
2019 06 16 13  16 08 41.488   -05 59 11.03  .97236 1.9311 152.5 22.2 .546 120
2019 06 16 14  16 08 38.087   -05 59 52.03  .97246 1.9310 152.4 22.2 .549 120
2019 06 16 15  16 08 34.688   -06 00 33.04  .97256 1.9310 152.4 22.2 .553 120
2019 06 16 16  16 08 31.292   -06 01 14.07  .97266 1.9309 152.4 22.2 .556 120
2019 06 16 17  16 08 27.899   -06 01 55.12  .97276 1.9309 152.3 22.2 .559 120
2019 06 16 18  16 08 24.508   -06 02 36.19  .97286 1.9308 152.3 22.2 .562 120
2019 06 16 19  16 08 21.121   -06 03 17.27  .97296 1.9308 152.2 22.2 .565 120
2019 06 16 20  16 08 17.735   -06 03 58.37  .97306 1.9307 152.2 22.2 .568 120
2019 06 16 21  16 08 14.353   -06 04 39.49  .97317 1.9307 152.2 22.2 .571 119
2019 06 16 22  16 08 10.973   -06 05 20.63  .97327 1.9306 152.1 22.2 .575 119
2019 06 16 23  16 08 07.596   -06 06 01.78  .97337 1.9306 152.1 22.2 .578 119
2019 06 17 00  16 08 04.221   -06 06 42.95  .97347 1.9305 152.1 22.2 .581 119
2019 06 17 01  16 08 00.849   -06 07 24.14  .97358 1.9305 152.0 22.2 .584 119
2019 06 17 02  16 07 57.480   -06 08 05.34  .97368 1.9304 152.0 22.2 .587 119
2019 06 17 03  16 07 54.114   -06 08 46.57  .97379 1.9304 151.9 22.2 .591 119
2019 06 17 04  16 07 50.750   -06 09 27.80  .97389 1.9303 151.9 22.2 .594 119
2019 06 17 05  16 07 47.390   -06 10 09.06  .97400 1.9303 151.9 22.2 .597 119
2019 06 17 06  16 07 44.031   -06 10 50.33  .97410 1.9302 151.8 22.2 .600 119
2019 06 17 07  16 07 40.676   -06 11 31.62  .97421 1.9302 151.8 22.2 .604 119
2019 06 17 08  16 07 37.324   -06 12 12.93  .97432 1.9301 151.8 22.3 .607 119
2019 06 17 09  16 07 33.974   -06 12 54.25  .97442 1.9301 151.7 22.3 .610 119
2019 06 17 10  16 07 30.627   -06 13 35.59  .97453 1.9300 151.7 22.3 .613 118
2019 06 17 11  16 07 27.282   -06 14 16.95  .97464 1.9300 151.7 22.3 .617 118
2019 06 17 12  16 07 23.941   -06 14 58.32  .97474 1.9299 151.6 22.3 .620 118
2019 06 17 13  16 07 20.602   -06 15 39.71  .97485 1.9299 151.6 22.3 .623 118
2019 06 17 14  16 07 17.266   -06 16 21.12  .97496 1.9298 151.5 22.3 .626 118
2019 06 17 15  16 07 13.933   -06 17 02.54  .97507 1.9298 151.5 22.3 .630 118
2019 06 17 16  16 07 10.603   -06 17 43.98  .97518 1.9297 151.5 22.3 .633 118
2019 06 17 17  16 07 07.276   -06 18 25.43  .97529 1.9297 151.4 22.3 .636 118
2019 06 17 18  16 07 03.951   -06 19 06.90  .97540 1.9296 151.4 22.3 .640 118